This is the latest recevied weather packets stored in our database for station/object KR4KUV. If no packets are shown the sender has not sent any weather packets the latest 10 day(s).
| Time | Temp. | Humidity | Pressure | Rain* | Wind** | Luminosity | Snow |
|---|---|---|---|---|---|---|---|
| 1787531102 | 22.78° C | 90% | 1015.9 hPa | 0 mm | - | 0 W/m² | - |
| 1787530797 | 22.78° C | 89% | 1016.1 hPa | 0 mm | - | 0 W/m² | - |
| 1787530497 | 22.78° C | 87% | 1016.1 hPa | 0 mm | - | 0 W/m² | - |
| 1787530192 | 23.33° C | 87% | 1016.1 hPa | 0 mm | - | 1 W/m² | - |
| 1787529887 | 23.89° C | 86% | 1016 hPa | 0 mm | - | 2 W/m² | - |
| 1787529583 | 23.89° C | 86% | 1015.9 hPa | 0 mm | - | 3 W/m² | - |
| 1787529277 | 24.44° C | 85% | 1015.8 hPa | 0 mm | - | 5 W/m² | - |
| 1787528971 | 24.44° C | 84% | 1015.9 hPa | 0 mm | - | 7 W/m² | - |
| 1787528669 | 24.44° C | 84% | 1015.8 hPa | 0 mm | - | 10 W/m² | - |
| 1787528368 | 25° C | 83% | 1015.7 hPa | 0 mm | - | 13 W/m² | - |
| 1787528065 | 25° C | 80% | 1015.8 hPa | 0 mm | - | 17 W/m² | - |
| 1787527761 | 25.56° C | 79% | 1015.7 hPa | 0 mm | - | 21 W/m² | - |
| 1787527456 | 25.56° C | 79% | 1015.8 hPa | 0 mm | - | 23 W/m² | - |
| 1787527151 | 26.11° C | 75% | 1015.7 hPa | 0 mm | - | 26 W/m² | - |
| 1787526847 | 26.67° C | 71% | 1015.7 hPa | 0 mm | - | 30 W/m² | - |
| 1787526543 | 26.67° C | 69% | 1015.8 hPa | 0 mm | - | 34 W/m² | - |
| 1787526239 | 26.67° C | 67% | 1015.7 hPa | 0 mm | - | 41 W/m² | - |
| 1787525935 | 27.22° C | 68% | 1015.5 hPa | 0 mm | - | 49 W/m² | - |
| 1787525630 | 27.78° C | 66% | 1015.5 hPa | 0 mm | - | 78 W/m² | - |
| 1787525325 | 27.78° C | 63% | 1016 hPa | 0 mm | - | 92 W/m² | - |
| 1787525022 | 28.33° C | 63% | 1015.8 hPa | 0 mm | - | 102 W/m² | - |
| 1787524721 | 28.89° C | 57% | 1015.6 hPa | 0 mm | - | 116 W/m² | - |
| 1787524418 | 28.89° C | 57% | 1015.8 hPa | 0 mm | - | 129 W/m² | - |
| 1787524112 | 29.44° C | 56% | 1015.8 hPa | 0 mm | - | 143 W/m² | - |
| 1787523808 | 29.44° C | 54% | 1015.5 hPa | 0 mm | - | 155 W/m² | - |
* Rain latest hour (hover to see other rain measurements)
** Current wind speed in m/s (hover to see current wind gust speed)